Regional Weather Roundup
Issued by NWS

Home | Current Version | Previous Version | Graphics & Text | Print | Product List | Glossary Off
Versions: 1 2 3 4 5 6 7 8 9 10 11 12 13 14 15 16 17 18 19 20 21 22 23 24 25 26 27 28 29 30 31 32 33 34 35 36 37 38 39 40 41 42 43 44 45 46 47 48 49 50

579
ASUS43 KDTX 270801
RWRMI
MICHIGAN HOURLY REGIONAL WEATHER ROUNDUP
NATIONAL WEATHER SERVICE DETROIT/PONTIAC MI
400 AM EDT THU APR 27 2017

NOTE: "FAIR" INDICATES FEW OR NO CLOUDS BELOW 12,000 FEET WITH NO
SIGNIFICANT WEATHER AND/OR OBSTRUCTION TO VISIBILITY.

MIZ047>049-052>055-059>063-066>070-074>076-081>083-270900-
SOUTHEAST LOWER MICHIGAN

CITY           SKY/WX    TMP DP  RH WIND       PRES   REMARKS
ADRIAN         CLOUDY    64  51  62 S13       29.49F
ALMA           PTCLDY    63  58  84 S8        29.42F
ANN ARBOR      CLOUDY    64  52  64 SE3       29.49F
BAD AXE        MOCLDY    62  53  72 SE10      29.51F
CARO           CLOUDY    61  54  77 SE10      29.48F
DETROIT CITY   CLEAR     62  53  72 SE7       29.52F
DETROIT        CLOUDY    65  53  65 SE8       29.51F
FLINT          CLEAR     62  54  74 SE9       29.47F
GROSSE ILE     CLOUDY    63  53  70 S12       29.51F
HILLSDALE      CLOUDY    64  52  63 SE9       29.47S
HOWELL         PTCLDY    62  55  76 SE7       29.47F

CITY           SKY/WX    TMP DP  RH WIND       PRES   REMARKS
JACKSON        CLOUDY    66  53  63 S10       29.46F
LAMBERTVILLE   CLOUDY    67  50  54 S9        29.50F
LANSING        CLOUDY    69  53  56 S15       29.44F
LAPEER         FAIR      59  52  78 SE12      29.51F
MASON          CLOUDY    65  56  70 S9G17     29.46S
MONROE         CLOUDY    64  51  63 SE10      29.50F
MT. CLEMENS    CLEAR     57  55  91 SE7       29.52F
PONTIAC        CLEAR     61  52  72 SE8       29.50F
PORT HOPE        N/A     62  54  74 SE9       29.49F
PORT HURON     CLEAR     59  50  72 SE5       29.55F
TRI CITIES     PTCLDY    65  58  78 SE13      29.44F
MIDLAND        FAIR      66  56  69 SE7       29.43F
TROY           CLEAR     59  51  74 NE3       29.54F
SAGINAW HB     CLOUDY    63  54  72 SE10      29.45F
$$
MIZ043>046-050>051-056>058-064>065-071>073-077>080-270900-
SOUTHWEST LOWER MICHIGAN

CITY           SKY/WX    TMP DP  RH WIND       PRES   REMARKS
BATTLE CREEK   MOCLDY    65  56  72 S8        29.43F
BENTON HARBOR  CLOUDY    59  57  93 SE3       29.40F FOG
BIG RAPIDS     CLOUDY    58  56  94 W9        29.39F
COLDWATER      MOCLDY    67  55  65 S13       29.44F
FREMONT        MOCLDY    58  58 100 E5        29.37F FOG
HOLLAND        CLOUDY    59  57  93 SE5       29.39F FOG
GRAND RAPIDS   CLOUDY    61  61 100 S6        29.40F
IONIA          FAIR      64  56  75 SE9       29.40F
KALAMAZOO      CLOUDY    62  56  80 CALM      29.42F
LUDINGTON      DRIZZLE   57  57 100 CALM      29.37F
MARSHALL       CLOUDY    67  55  64 S9        29.43F
MOUNT PLEASANT CLOUDY    63  57  79 SE5       29.41F
MUSKEGON       CLOUDY    59  58  96 SE3       29.37F FOG
SOUTH HAVEN    CLOUDY    58  58  98 SE3       29.40F
$$
MIZ016>042-270900-
NORTHERN LOWER MICHIGAN

CITY           SKY/WX    TMP DP  RH WIND       PRES   REMARKS
ALPENA         CLOUDY    54  51  90 CALM      29.45R
BEAVER ISLAND  RAIN      51  50  98 E3        29.40F
BELLAIRE       CLOUDY    58  56  93 W3        29.41F
CADILLAC       CLOUDY    59  57  92 E5        29.38F
CHARLEVOIX     LGT RAIN  59  58  98 CALM      29.40F
FRANKFORT      RAIN      56  53  91 CALM      29.40S
GAYLORD        CLOUDY    62  56  80 S7        29.44F
GRAYLING       CLOUDY    60  57  91 CALM      29.42F
HARBOR SPRINGS HVY RAIN  55  55 100 N7        29.40F
HOUGHTON LAKE  CLOUDY    60  56  86 SE6       29.42F
MANISTEE       LGT RAIN  58  57  97 E7        29.37F FOG
OSCODA         CLOUDY    64  54  69 S9G17     29.46F
PELLSTON       RAIN      53  50  89 SE5       29.46R FOG
ROGERS CITY    CLOUDY    52  49  89 S8        29.47R
TRAVERSE CITY  LGT RAIN  61  57  87 CALM      29.37F
$$
MIZ007>008-015-270900-
EASTERN UPPER MICHIGAN

CITY           SKY/WX    TMP DP  RH WIND       PRES   REMARKS
KINROSS        LGT RAIN  49  48  97 E8        29.45F
MACKINAC ISLAN MIX PCPN  45  45 100 E17G29    29.43S
NEWBERRY       CLOUDY    50  49  97 NE3       29.43S FOG
S. S. MARIE    LGT RAIN  53  51  93 E8        29.44F FOG
MUNISING         N/A     36  35  96 N7        29.45F WCI  30
$$
MIZ004>006-011>014-085-270900-
CENTRAL UPPER MICHIGAN

CITY           SKY/WX    TMP DP  RH WIND       PRES   REMARKS
MANISTIQUE     LGT RAIN  42  41  97 N8        29.42F
ESCANABA       LGT RAIN  40  39  97 VRB6      29.41F
MENOMINEE      LGT RAIN  43  41  93 N8        29.41F
SAWYER-GWINN   LGT RAIN  34  34  99 NE8       29.43F WCI  27
$$
MIZ001>003-009>011-084-270900-
WESTERN UPPER MICHIGAN

CITY           SKY/WX    TMP DP  RH WIND       PRES   REMARKS
IRON MOUNTAIN  LGT RAIN  36  32  85 N12       29.41F WCI  28
HOUGHTON       LGT SNOW  30  26  85 N12       29.49R FOG     WCI  20
IRONWOOD       LGT SNOW  27  26  96 NE8       29.52F FOG     WCI  19
$$

ABBREVIATIONS USED IN REMARKS
   TC - TEMPERATURE IN CELSIUS
  WCI - WIND CHILL INDEX
   HX - HEAT INDEX
  VSB - VISIBILITY





USA.gov is the U.S. government's official web portal to all federal, state and local government web resources and services.